Location: Beadle
(51.4667°N, 109.0000°W)
Time: 10:46:18
(UTC+00:00)

deb Explorer IX - Pass Details

Date: 06 June 2022
Orbit: 535 x 1068 km, 38.8° (Epoch: 04 July)

Event Time Altitude Azimuth Distance (km) Brightness Sun altitude
Rises 15:11:27 0° 234° (SW) 3,744 ? 35.6°
Reaches altitude 10° 15:14:31 10° 222° (SW) 2,843 ? 36.1°
Maximum altitude 15:20:09 27° 169° (S) 1,937 ? 36.9°
Drops below altitude 10° 15:25:52 10° 115° (ESE) 2,884 ? 37.8°
Sets 15:28:59 0° 104° (ESE) 3,809 ? 38.3°
